TimeMDT,TemperatureF,Dew PointF,Humidity,Sea Level PressureIn,VisibilityMPH,Wind Direction,Wind SpeedMPH,Gust SpeedMPH,PrecipitationIn,Events,Conditions,WindDirDegrees,DateUTC
12:53 AM,73.0,46.0,38,29.90,10.0,SE,15.0,-,N/A,,Clear,140,2013-09-03 06:53:00
1:53 AM,73.0,46.0,38,29.90,10.0,SSE,10.4,18.4,N/A,,Clear,150,2013-09-03 07:53:00
2:53 AM,70.0,46.9,44,29.89,10.0,ESE,5.8,-,N/A,,Clear,120,2013-09-03 08:53:00
3:53 AM,68.0,48.0,49,29.90,10.0,SE,6.9,-,N/A,,Clear,130,2013-09-03 09:53:00
4:53 AM,66.0,48.9,54,29.91,10.0,NE,4.6,-,N/A,,Clear,50,2013-09-03 10:53:00
5:53 AM,64.0,50.0,60,29.91,10.0,East,6.9,-,N/A,,Clear,90,2013-09-03 11:53:00
6:53 AM,63.0,51.1,65,29.93,10.0,East,4.6,-,N/A,,Clear,80,2013-09-03 12:53:00
7:53 AM,70.0,53.1,55,29.94,10.0,East,6.9,-,N/A,,Clear,100,2013-09-03 13:53:00
8:53 AM,78.1,57.0,48,29.92,10.0,NE,4.6,-,N/A,,Clear,40,2013-09-03 14:53:00
9:53 AM,86.0,57.9,38,29.91,10.0,NW,4.6,-,N/A,,Clear,310,2013-09-03 15:53:00
10:53 AM,89.1,55.9,32,29.90,10.0,Calm,Calm,-,N/A,,Clear,0,2013-09-03 16:53:00
11:53 AM,95.0,55.0,26,29.88,10.0,South,8.1,-,N/A,,Clear,180,2013-09-03 17:53:00
12:53 PM,97.0,53.1,23,29.86,10.0,South,12.7,20.7,N/A,,Clear,180,2013-09-03 18:53:00
1:53 PM,99.0,51.1,20,29.83,10.0,SSE,8.1,18.4,N/A,,Clear,150,2013-09-03 19:53:00
2:53 PM,99.0,51.1,20,29.82,10.0,South,11.5,24.2,N/A,,Clear,180,2013-09-03 20:53:00
3:53 PM,99.0,50.0,19,29.81,10.0,South,10.4,19.6,N/A,,Clear,180,2013-09-03 21:53:00
4:53 PM,99.0,48.9,18,29.80,10.0,South,16.1,19.6,N/A,,Clear,170,2013-09-03 22:53:00
5:53 PM,97.0,50.0,20,29.81,10.0,South,16.1,23.0,N/A,,Clear,170,2013-09-03 23:53:00
6:53 PM,91.9,50.0,24,29.82,10.0,South,13.8,-,N/A,,Clear,170,2013-09-04 00:53:00
7:53 PM,86.0,50.0,29,29.83,10.0,SE,9.2,-,N/A,,Clear,140,2013-09-04 01:53:00
8:53 PM,84.0,51.1,32,29.84,10.0,SSE,13.8,-,N/A,,Clear,150,2013-09-04 02:53:00
9:53 PM,81.0,52.0,36,29.85,10.0,SSE,12.7,-,N/A,,Clear,150,2013-09-04 03:53:00
10:53 PM,80.1,51.1,36,29.86,10.0,SSE,16.1,-,N/A,,Clear,160,2013-09-04 04:53:00
11:53 PM,79.0,52.0,39,29.86,10.0,SSE,17.3,-,N/A,,Clear,160,2013-09-04 05:53:00